User: anonymous
Location: Unspecified
(0.0000°N, 0.0000°E)
Time: 08:22:25
(UTC+02:00)
Language:

Timation 2 Rocket - Orbit

View from above orbital plane
View from above orbital plane
View from above satellite
View from above satellite

Ground track
Ground track

The orbit data is extracted from the following two-line orbital elements,

1 04159U 69082AB  14294.17433401  .00000110  00000-0  16757-3 0  7266
2 04159 069.9640 353.2102 0117106 218.2249 141.0500 13.72254758254999
Epoch (UTC): 21 October 2014 04:11:02
Eccentricity: 0.0117106
inclination: 69.9640°
perigee height: 905 km
apogee height: 1078 km
right ascension of ascending node: 353.2102°
argument of perigee: 218.2249°
revolutions per day: 13.72254758
mean anomaly at epoch: 141.0500°
orbit number at epoch: 25499

The dashed part of the orbit path shows where the satellite is in the earth's shadow,  

DLR